TimeEDT,TemperatureF,Dew PointF,Humidity,Sea Level PressureIn,VisibilityMPH,Wind Direction,Wind SpeedMPH,Gust SpeedMPH,PrecipitationIn,Events,Conditions,WindDirDegrees,DateUTC
12:50 AM,55.4,55.4,100,30.29,1.8,Calm,Calm,-,N/A,,Clear,0,2013-08-25 04:50:00
12:53 AM,55.0,54.0,96,30.28,1.0,Calm,Calm,-,N/A,,Clear,0,2013-08-25 04:53:00
1:00 AM,55.4,53.6,94,30.29,0.5,Calm,Calm,-,N/A,Fog,Fog,0,2013-08-25 05:00:00
1:06 AM,57.2,55.4,94,30.29,1.8,Calm,Calm,-,N/A,,Clear,0,2013-08-25 05:06:00
1:08 AM,57.2,55.4,94,30.29,4.0,Calm,Calm,-,N/A,,Clear,0,2013-08-25 05:08:00
1:23 AM,53.6,53.6,100,30.29,1.8,Calm,Calm,-,N/A,,Clear,0,2013-08-25 05:23:00
1:27 AM,53.6,53.6,100,30.29,0.8,Calm,Calm,-,N/A,,Clear,0,2013-08-25 05:27:00
1:48 AM,53.6,53.6,100,30.29,2.5,Calm,Calm,-,N/A,,Clear,0,2013-08-25 05:48:00
1:53 AM,54.0,53.1,97,30.28,5.0,Calm,Calm,-,N/A,,Clear,0,2013-08-25 05:53:00
1:56 AM,55.4,53.6,94,30.29,1.5,Calm,Calm,-,N/A,,Clear,0,2013-08-25 05:56:00
1:58 AM,55.4,53.6,94,30.29,0.8,Calm,Calm,-,N/A,,Clear,0,2013-08-25 05:58:00
2:48 AM,51.8,51.8,100,30.29,0.2,Calm,Calm,-,N/A,Fog,Fog,0,2013-08-25 06:48:00
2:53 AM,55.0,54.0,96,30.29,0.2,Calm,Calm,-,N/A,Fog,Fog,0,2013-08-25 06:53:00
3:21 AM,53.6,51.8,94,30.29,1.8,Calm,Calm,-,N/A,,Clear,0,2013-08-25 07:21:00
3:28 AM,53.6,51.8,94,30.29,10.0,Calm,Calm,-,N/A,,Clear,0,2013-08-25 07:28:00
3:44 AM,51.8,51.8,100,30.29,1.5,Calm,Calm,-,N/A,,Partly Cloudy,0,2013-08-25 07:44:00
3:49 AM,51.8,50.0,94,30.29,1.0,Calm,Calm,-,N/A,,Mist,0,2013-08-25 07:49:00
3:53 AM,52.0,51.1,97,30.29,0.2,Calm,Calm,-,N/A,Fog,Fog,0,2013-08-25 07:53:00
4:53 AM,52.0,52.0,100,30.30,0.2,Calm,Calm,-,N/A,Fog,Fog,0,2013-08-25 08:53:00
5:53 AM,52.0,51.1,97,30.30,0.2,Calm,Calm,-,N/A,Fog,Fog,0,2013-08-25 09:53:00
6:53 AM,51.1,51.1,100,30.30,0.2,Calm,Calm,-,0.01,Fog,Fog,0,2013-08-25 10:53:00
7:12 AM,51.8,51.8,100,30.30,0.5,Calm,Calm,-,N/A,Fog,Fog,0,2013-08-25 11:12:00
7:41 AM,53.6,53.6,100,30.30,1.5,Calm,Calm,-,N/A,,Clear,0,2013-08-25 11:41:00
7:43 AM,53.6,53.6,100,30.30,3.0,Calm,Calm,-,N/A,,Clear,0,2013-08-25 11:43:00
7:53 AM,55.0,55.0,100,30.30,7.0,Calm,Calm,-,N/A,,Clear,0,2013-08-25 11:53:00
8:53 AM,64.9,59.0,81,30.30,10.0,SSW,3.5,-,N/A,,Clear,200,2013-08-25 12:53:00
9:53 AM,71.1,60.1,68,30.30,10.0,SW,6.9,-,N/A,,Clear,220,2013-08-25 13:53:00
10:53 AM,75.9,62.1,62,30.29,10.0,SW,6.9,80.6,N/A,,Clear,230,2013-08-25 14:53:00
11:53 AM,79.0,63.0,58,30.27,10.0,SW,8.1,-,N/A,,Clear,230,2013-08-25 15:53:00
12:53 PM,82.0,62.1,51,30.26,10.0,WSW,11.5,-,N/A,,Clear,250,2013-08-25 16:53:00
1:53 PM,84.0,62.1,47,30.25,10.0,SW,9.2,-,N/A,,Clear,230,2013-08-25 17:53:00
2:53 PM,84.0,61.0,46,30.22,10.0,WSW,12.7,-,N/A,,Clear,240,2013-08-25 18:53:00
3:53 PM,84.9,62.1,46,30.21,10.0,WSW,11.5,-,N/A,,Clear,240,2013-08-25 19:53:00
4:53 PM,84.9,61.0,44,30.19,10.0,WSW,10.4,-,N/A,,Clear,240,2013-08-25 20:53:00
5:53 PM,84.9,61.0,44,30.18,10.0,WSW,11.5,-,N/A,,Clear,250,2013-08-25 21:53:00
6:53 PM,82.9,62.1,49,30.17,10.0,WSW,9.2,-,N/A,,Clear,240,2013-08-25 22:53:00
7:53 PM,78.1,64.0,62,30.17,10.0,WSW,4.6,-,N/A,,Clear,240,2013-08-25 23:53:00
8:53 PM,72.0,64.0,76,30.18,10.0,West,3.5,-,N/A,,Clear,260,2013-08-26 00:53:00
9:53 PM,70.0,64.0,81,30.18,10.0,SW,4.6,-,N/A,,Clear,230,2013-08-26 01:53:00
10:53 PM,69.1,63.0,81,30.18,10.0,WSW,6.9,-,N/A,,Clear,240,2013-08-26 02:53:00
11:53 PM,69.1,62.1,78,30.18,10.0,WSW,5.8,-,N/A,,Clear,250,2013-08-26 03:53:00